Location: *
(50.5492°N, 7.7469°E)
Time: 02:58:02
(UTC+00:00)

STARLINK-72 - Pass Details

Date: 21 October 2019
Orbit: 548 x 551 km, 53.0° (Epoch: 16 November)

Event Time Altitude Azimuth Distance (km) Brightness Sun altitude
Rises 19:00:43 0° 287° (WNW) 2,721 8.6 -25.2°
Reaches altitude 10° 19:02:57 10° 289° (WNW) 1,826 7.3 -25.5°
Enters shadow 19:06:13 53° 303° (WNW) 683 4.3 -26.0°
